Terminal Aerodrome Forecast
Issued by NWS Wilmington, OH

Home | Current Version | Previous Version | Text Only | Print | Product List | Glossary On
Versions: 1 2 3 4 5 6 7 8 9 10 11 12 13 14 15 16
000
FTUS41 KILN 010800 AAA
TAFILN
TAF AMD
KILN 010855Z 0109/0206 35016G28KT 4SM -SN BR OVC014
     FM011000 34016G26KT P6SM OVC015
     FM011700 35016G25KT P6SM OVC022
     FM012100 35015G25KT P6SM BKN035
     FM012300 32005KT P6SM SCT035=

USA.gov is the U.S. government's official web portal to all federal, state and local government web resources and services.